This demonstration page uses our WeatherBlox Daily Observations layout. Learn more.

Left ArrowRight Arrow

41.55636, -103.73856

Hourly Observations for April 11, 2021

Temp ( °F °C ) Dew Point ( °F °C ) Humidity (%) Winds ( mph kmh ) Pressure ( in mb ) Visibility ( mi km ) Precip ( " mm )
12:58 am 00:58 Mostly Cloudy 47 8.6 14 -9.9 26 26 W 22 35 29.56 1001 10 16.0934 0 0
1:58 am 01:58 Clear 48 9 14 -10 25 25 WNW 21 33 29.57 1001 10 16.0934 0 0
2:58 am 02:58 Clear 39 3.7 24 -4.3 56 56 NNW 22 35 29.62 1003 10 16.0934 0 0
3:58 am 03:58 Clear 34 0.9 25 -4.1 70 70 NW 18 30 29.65 1004 10 16.0934 0 0
4:58 am 04:58 Clear 31 -0.5 24 -4.7 74 74 NNW 15 24 29.7 1006 10 16.0934 0 0
5:58 am 05:58 Clear 30 -1 23 -4.9 75 75 NNW 16 26 29.73 1007 10 16.0934 0 0
6:58 am 06:58 Cloudy 32 -0.1 24 -4.4 73 73 N 24 39 29.76 1008 10 16.0934 0 0
7:58 am 07:58 Mostly Cloudy 33 0.7 26 -3.6 73 73 N 21 33 29.83 1010 10 16.0934 0 0
8:58 am 08:58 Cloudy 35 1.4 25 -3.7 69 69 N 24 39 29.83 1010 10 16.0934 0 0
9:58 am 09:58 Mostly Cloudy 37 2.9 24 -4.4 59 59 NNW 24 39 29.85 1011 10 16.0934 0 0
10:58 am 10:58 Mostly Cloudy 41 4.9 23 -4.9 49 49 N 26 43 29.85 1011 10 16.0934 0 0
11:58 am 11:58 Mostly Sunny 42 5.8 19 -7.1 39 39 N 32 52 29.83 1010 10 16.0934 0 0
12:58 pm 12:58 Sunny 43 6.1 17 -8.3 35 35 N 33 54 29.84 1011 10 16.0934 0 0
1:58 pm 13:58 Sunny 45 7.2 11 -11.5 25 25 NNW 36 57 29.81 1010 10 16.0934 0 0
2:58 pm 14:58 Sunny 46 7.7 6 -14.3 19 19 NNW 28 44 29.88 1012 10 16.0934 0 0
3:58 pm 15:58 Sunny 46 7.9 6 -14.3 19 19 N 26 43 29.91 1013 10 16.0934 0 0
4:58 pm 16:58 Sunny 45 7 9 -12.6 23 23 N 28 44 29.93 1014 10 16.0934 0 0
5:58 pm 17:58 Sunny 41 5.1 13 -10.4 32 32 N 25 41 29.98 1015 10 16.0934 0 0
6:58 pm 18:58 Sunny 38 3.3 13 -10.6 36 36 NNE 21 33 30.03 1017 10 16.0934 0 0
7:58 pm 19:58 Clear 35 1.6 13 -10.5 41 41 NNE 16 26 30.05 1018 10 16.0934 0 0
8:58 pm 20:58 Mostly Cloudy 33 0.6 15 -9.4 47 47 NNE 17 28 30.07 1018 10 16.0934 0 0
9:58 pm 21:58 Mostly Cloudy 33 0.3 14 -9.8 47 47 NNE 10 17 30.1 1019 10 16.0934 0 0
10:58 pm 22:58 Mostly Cloudy 32 -0.2 14 -9.9 48 48 NNE 9 15 30.1 1019 10 16.0934 0 0
11:58 pm 23:58 Cloudy 31 -0.8 15 -9.2 53 53 NNW 6 9 30.1 1019 10 16.0934 0 0

Powered by AerisWeather